Time,TemperatureF,DewpointF,PressureIn,WindDirection,WindDirectionDegrees,WindSpeedMPH,WindSpeedGustMPH,Humidity,HourlyPrecipIn,Conditions,Clouds,dailyrainin,SoftwareType,DateUTC
2013-01-28 00:04:00,29.0,28.0,30.50,WNW,290,5.0,8.0,97,0.00,,,-99.99,,2013-01-28 05:04:00,
2013-01-28 00:11:00,29.0,28.0,30.50,WNW,290,5.0,8.0,97,0.00,,,-99.99,,2013-01-28 05:11:00,
2013-01-28 00:21:00,29.0,28.0,30.49,NW,309,7.0,10.0,97,0.00,,,-99.99,,2013-01-28 05:21:00,
2013-01-28 00:32:00,29.0,28.0,30.48,WNW,300,5.0,9.0,97,0.00,,,-99.99,,2013-01-28 05:32:00,
2013-01-28 00:42:00,29.0,28.0,30.48,WNW,300,5.0,9.0,97,0.00,,,-99.99,,2013-01-28 05:42:00,
2013-01-28 00:52:00,30.0,29.0,30.48,West,264,6.0,11.0,97,0.00,,,-99.99,,2013-01-28 05:52:00,
2013-01-28 01:02:00,30.0,29.0,30.48,NW,304,3.0,7.0,97,0.00,,,-99.99,,2013-01-28 06:02:00,
2013-01-28 01:11:00,30.0,29.0,30.48,NW,304,3.0,7.0,97,0.00,,,-99.99,,2013-01-28 06:11:00,
2013-01-28 01:22:00,29.0,28.0,30.48,WSW,250,6.0,10.0,97,0.00,,,-99.99,,2013-01-28 06:22:00,
2013-01-28 01:32:00,29.0,28.0,30.48,West,281,6.0,10.0,97,0.00,,,-99.99,,2013-01-28 06:32:00,
2013-01-28 01:42:00,29.0,28.0,30.48,West,281,6.0,10.0,97,0.00,,,-99.99,,2013-01-28 06:42:00,
2013-01-28 01:52:00,29.0,29.0,30.50,WNW,301,1.0,6.0,98,0.00,,,-99.99,,2013-01-28 06:52:00,
2013-01-28 02:02:00,29.0,29.0,30.48,SSW,208,0.0,8.0,98,0.00,,,-99.99,,2013-01-28 07:02:00,
2013-01-28 02:11:00,29.0,29.0,30.48,SSW,208,0.0,8.0,98,0.00,,,-99.99,,2013-01-28 07:11:00,
2013-01-28 02:21:00,30.0,29.0,30.48,SSW,208,0.0,0.0,98,0.00,,,-99.99,,2013-01-28 07:21:00,
2013-01-28 02:32:00,31.0,31.0,30.48,NW,312,1.0,3.0,99,0.00,,,-99.99,,2013-01-28 07:32:00,
2013-01-28 02:42:00,31.0,31.0,30.48,NW,312,1.0,3.0,99,0.00,,,-99.99,,2013-01-28 07:42:00,
2013-01-28 02:52:00,33.0,33.0,30.46,WNW,297,0.0,0.0,99,0.00,,,-99.99,,2013-01-28 07:52:00,
2013-01-28 03:01:00,35.0,35.0,30.48,NW,311,4.0,4.0,99,0.00,,,-99.99,,2013-01-28 08:01:00,
2013-01-28 03:11:00,36.0,35.0,30.48,NW,311,0.0,0.0,98,0.00,,,-99.99,,2013-01-28 08:11:00,
2013-01-28 03:21:00,36.0,35.0,30.48,NW,311,0.0,0.0,98,0.00,,,-99.99,,2013-01-28 08:21:00,
2013-01-28 03:32:00,36.0,35.0,30.47,NW,311,0.0,0.0,98,0.00,,,-99.99,,2013-01-28 08:32:00,
2013-01-28 03:42:00,36.0,35.0,30.47,NW,311,0.0,0.0,98,0.00,,,-99.99,,2013-01-28 08:42:00,
2013-01-28 03:52:00,37.0,36.0,30.48,WNW,300,2.0,6.0,98,0.00,,,-99.99,,2013-01-28 08:52:00,
2013-01-28 04:02:00,37.0,36.0,30.48,West,280,0.0,3.0,98,0.00,,,-99.99,,2013-01-28 09:02:00,
2013-01-28 04:11:00,37.0,36.0,30.48,West,280,0.0,3.0,98,0.00,,,-99.99,,2013-01-28 09:11:00,
2013-01-28 04:22:00,38.0,37.0,30.48,NNW,328,0.0,4.0,98,0.00,,,-99.99,,2013-01-28 09:22:00,
2013-01-28 04:32:00,37.0,36.0,30.47,West,278,0.0,0.0,98,0.00,,,-99.99,,2013-01-28 09:32:00,
2013-01-28 04:42:00,37.0,36.0,30.47,West,278,0.0,0.0,98,0.00,,,-99.99,,2013-01-28 09:42:00,
2013-01-28 04:52:00,37.0,36.0,30.47,WNW,293,0.0,3.0,98,0.00,,,-99.99,,2013-01-28 09:52:00,
2013-01-28 05:02:00,37.0,36.0,30.47,NW,314,0.0,5.0,98,0.00,,,-99.99,,2013-01-28 10:02:00,
2013-01-28 05:11:00,37.0,36.0,30.47,NW,314,0.0,5.0,98,0.00,,,-99.99,,2013-01-28 10:11:00,
2013-01-28 05:21:00,37.0,36.0,30.47,NW,315,0.0,6.0,98,0.00,,,-99.99,,2013-01-28 10:21:00,
2013-01-28 05:32:00,36.0,35.0,30.48,NW,305,4.0,4.0,98,0.00,,,-99.99,,2013-01-28 10:32:00,
2013-01-28 05:42:00,36.0,35.0,30.48,NW,305,4.0,4.0,98,0.00,,,-99.99,,2013-01-28 10:42:00,
2013-01-28 05:52:00,36.0,35.0,30.48,NW,326,3.0,9.0,98,0.00,,,-99.99,,2013-01-28 10:52:00,
2013-01-28 06:02:00,36.0,35.0,30.47,NW,307,5.0,5.0,98,0.00,,,-99.99,,2013-01-28 11:02:00,
2013-01-28 06:11:00,36.0,35.0,30.47,NW,307,5.0,5.0,98,0.00,,,-99.99,,2013-01-28 11:11:00,
2013-01-28 06:22:00,37.0,36.0,30.48,NW,312,4.0,7.0,97,0.01,,,-99.99,,2013-01-28 11:22:00,
2013-01-28 06:32:00,37.0,36.0,30.49,NW,311,4.0,10.0,97,0.01,,,-99.99,,2013-01-28 11:32:00,
2013-01-28 06:42:00,37.0,36.0,30.49,NW,311,4.0,10.0,97,0.01,,,-99.99,,2013-01-28 11:42:00,
2013-01-28 06:52:00,37.0,36.0,30.49,West,260,4.0,7.0,96,0.01,,,-99.99,,2013-01-28 11:52:00,
2013-01-28 07:03:00,37.0,36.0,30.50,NW,308,3.0,5.0,95,0.01,,,-99.99,,2013-01-28 12:03:00,
2013-01-28 07:12:00,37.0,36.0,30.50,NW,308,3.0,5.0,95,0.01,,,-99.99,,2013-01-28 12:12:00,
2013-01-28 07:23:00,36.0,35.0,30.51,NW,316,3.0,6.0,95,0.00,,,-99.99,,2013-01-28 12:23:00,
2013-01-28 07:33:00,36.0,35.0,30.52,NW,314,3.0,7.0,95,0.00,,,-99.99,,2013-01-28 12:33:00,
2013-01-28 07:42:00,36.0,35.0,30.52,NW,314,3.0,7.0,95,0.00,,,-99.99,,2013-01-28 12:42:00,
2013-01-28 07:52:00,36.0,35.0,30.52,NNW,330,3.0,7.0,95,0.00,,,-99.99,,2013-01-28 12:52:00,
2013-01-28 08:03:00,36.0,34.0,30.51,West,266,3.0,6.0,94,0.00,,,-99.99,,2013-01-28 13:03:00,
2013-01-28 08:12:00,36.0,34.0,30.51,West,266,3.0,6.0,94,0.00,,,-99.99,,2013-01-28 13:12:00,
2013-01-28 08:23:00,37.0,36.0,30.51,NW,305,5.0,6.0,95,0.00,,,-99.99,,2013-01-28 13:23:00,
2013-01-28 08:33:00,37.0,36.0,30.52,NW,314,4.0,6.0,95,0.00,,,-99.99,,2013-01-28 13:33:00,
2013-01-28 08:42:00,37.0,36.0,30.52,NW,314,4.0,6.0,95,0.00,,,-99.99,,2013-01-28 13:42:00,
2013-01-28 08:53:00,37.0,36.0,30.52,NW,311,5.0,10.0,96,0.00,,,-99.99,,2013-01-28 13:53:00,
2013-01-28 09:03:00,38.0,37.0,30.52,WNW,295,5.0,10.0,95,0.00,,,-99.99,,2013-01-28 14:03:00,
2013-01-28 09:12:00,38.0,37.0,30.52,WNW,295,5.0,10.0,95,0.00,,,-99.99,,2013-01-28 14:12:00,
2013-01-28 09:23:00,40.0,39.0,30.52,NW,322,5.0,10.0,95,0.00,,,-99.99,,2013-01-28 14:23:00,
2013-01-28 09:33:00,41.0,40.0,30.52,NW,305,13.0,16.0,95,0.00,,,-99.99,,2013-01-28 14:33:00,
2013-01-28 09:43:00,41.0,40.0,30.52,NW,305,13.0,16.0,95,0.00,,,-99.99,,2013-01-28 14:43:00,
2013-01-28 09:53:00,45.0,43.0,30.53,NW,314,8.0,10.0,92,0.00,,,-99.99,,2013-01-28 14:53:00,
2013-01-28 10:03:00,45.0,43.0,30.53,NW,314,8.0,10.0,92,0.00,,,-99.99,,2013-01-28 15:03:00,
2013-01-28 10:12:00,45.0,43.0,30.53,NW,314,8.0,10.0,92,0.00,,,-99.99,,2013-01-28 15:12:00,
2013-01-28 10:23:00,44.0,42.0,30.53,NNW,335,5.0,11.0,93,0.00,,,-99.99,,2013-01-28 15:23:00,
2013-01-28 10:33:00,44.0,42.0,30.53,NNW,333,5.0,10.0,93,0.00,,,-99.99,,2013-01-28 15:33:00,
2013-01-28 10:43:00,44.0,42.0,30.53,NNW,333,5.0,10.0,93,0.00,,,-99.99,,2013-01-28 15:43:00,
2013-01-28 10:53:00,48.0,45.0,30.53,WNW,294,6.0,6.0,89,0.01,,,-99.99,,2013-01-28 15:53:00,
2013-01-28 11:04:00,49.0,45.0,30.53,WNW,287,7.0,10.0,87,0.01,,,-99.99,,2013-01-28 16:04:00,
2013-01-28 11:12:00,49.0,45.0,30.53,WNW,287,7.0,10.0,87,0.01,,,-99.99,,2013-01-28 16:12:00,
2013-01-28 11:22:00,50.0,46.0,30.53,West,273,6.0,12.0,86,0.01,,,-99.99,,2013-01-28 16:22:00,
2013-01-28 11:32:00,50.0,46.0,30.53,NW,326,9.0,11.0,85,0.01,,,-99.99,,2013-01-28 16:32:00,
2013-01-28 11:43:00,50.0,46.0,30.53,NW,326,9.0,11.0,85,0.01,,,-99.99,,2013-01-28 16:43:00,
2013-01-28 11:53:00,52.0,47.0,30.52,WNW,294,6.0,15.0,83,0.00,,,-99.99,,2013-01-28 16:53:00,
2013-01-28 12:02:00,52.0,47.0,30.52,WNW,294,6.0,15.0,83,0.00,,,-99.99,,2013-01-28 17:02:00,
2013-01-28 12:12:00,52.0,47.0,30.52,WNW,294,6.0,15.0,83,0.00,,,-99.99,,2013-01-28 17:12:00,
2013-01-28 12:23:00,50.0,46.0,30.51,NW,316,6.0,10.0,86,0.00,,,-99.99,,2013-01-28 17:23:00,
2013-01-28 12:32:00,51.0,46.0,30.49,NW,304,12.0,15.0,84,0.00,,,-99.99,,2013-01-28 17:32:00,
2013-01-28 12:42:00,51.0,46.0,30.49,NW,304,12.0,15.0,84,0.00,,,-99.99,,2013-01-28 17:42:00,
2013-01-28 12:53:00,53.0,47.0,30.47,NW,318,6.0,15.0,80,0.00,,,-99.99,,2013-01-28 17:53:00,
2013-01-28 13:03:00,53.0,46.0,30.47,West,281,6.0,10.0,78,0.00,,,-99.99,,2013-01-28 18:03:00,
2013-01-28 13:12:00,53.0,46.0,30.47,West,281,6.0,10.0,78,0.00,,,-99.99,,2013-01-28 18:12:00,
2013-01-28 13:23:00,54.0,47.0,30.46,WNW,298,5.0,12.0,76,0.00,,,-99.99,,2013-01-28 18:23:00,
2013-01-28 13:33:00,54.0,47.0,30.46,NNW,330,10.0,17.0,76,0.00,,,-99.99,,2013-01-28 18:33:00,
2013-01-28 13:42:00,54.0,47.0,30.46,NNW,330,10.0,17.0,76,0.00,,,-99.99,,2013-01-28 18:42:00,
2013-01-28 13:52:00,54.0,47.0,30.43,WNW,294,4.0,15.0,76,0.00,,,-99.99,,2013-01-28 18:52:00,
2013-01-28 14:02:00,54.0,46.0,30.43,WNW,302,6.0,11.0,75,0.00,,,-99.99,,2013-01-28 19:02:00,
2013-01-28 14:12:00,55.0,46.0,30.42,WNW,297,4.0,8.0,72,0.00,,,-99.99,,2013-01-28 19:12:00,
2013-01-28 14:22:00,55.0,46.0,30.42,WNW,297,4.0,8.0,72,0.00,,,-99.99,,2013-01-28 19:22:00,
2013-01-28 14:33:00,55.0,46.0,30.42,WNW,297,4.0,8.0,72,0.00,,,-99.99,,2013-01-28 19:33:00,
2013-01-28 14:42:00,55.0,46.0,30.42,WNW,297,4.0,8.0,72,0.00,,,-99.99,,2013-01-28 19:42:00,
2013-01-28 14:52:00,56.0,47.0,30.42,WSW,246,9.0,14.0,72,0.00,,,-99.99,,2013-01-28 19:52:00,
2013-01-28 15:02:00,56.0,47.0,30.42,WNW,290,5.0,6.0,72,0.00,,,-99.99,,2013-01-28 20:02:00,
2013-01-28 15:12:00,56.0,47.0,30.42,WNW,290,5.0,6.0,72,0.00,,,-99.99,,2013-01-28 20:12:00,
2013-01-28 15:22:00,56.0,47.0,30.42,NNW,336,3.0,10.0,72,0.00,,,-99.99,,2013-01-28 20:22:00,
2013-01-28 15:33:00,56.0,47.0,30.42,SW,235,11.0,11.0,72,0.00,,,-99.99,,2013-01-28 20:33:00,
2013-01-28 15:42:00,56.0,47.0,30.42,SW,235,11.0,11.0,72,0.00,,,-99.99,,2013-01-28 20:42:00,
2013-01-28 15:53:00,55.0,46.0,30.42,West,281,9.0,12.0,72,0.00,,,-99.99,,2013-01-28 20:53:00,
2013-01-28 16:03:00,55.0,47.0,30.41,West,273,5.0,9.0,73,0.00,,,-99.99,,2013-01-28 21:03:00,
2013-01-28 16:12:00,55.0,47.0,30.41,West,273,5.0,9.0,73,0.00,,,-99.99,,2013-01-28 21:12:00,
2013-01-28 16:22:00,54.0,46.0,30.42,SW,232,6.0,8.0,74,0.00,,,-99.99,,2013-01-28 21:22:00,
2013-01-28 16:33:00,54.0,46.0,30.42,West,273,6.0,9.0,74,0.00,,,-99.99,,2013-01-28 21:33:00,
2013-01-28 16:43:00,54.0,46.0,30.42,West,273,6.0,9.0,74,0.00,,,-99.99,,2013-01-28 21:43:00,
2013-01-28 16:53:00,54.0,46.0,30.42,West,277,6.0,10.0,75,0.00,,,-99.99,,2013-01-28 21:53:00,
2013-01-28 17:02:00,53.0,46.0,30.42,WNW,293,7.0,10.0,76,0.00,,,-99.99,,2013-01-28 22:02:00,
2013-01-28 17:12:00,53.0,46.0,30.42,WNW,293,7.0,10.0,76,0.00,,,-99.99,,2013-01-28 22:12:00,
2013-01-28 17:23:00,51.0,45.0,30.42,NNW,329,3.0,12.0,80,0.00,,,-99.99,,2013-01-28 22:23:00,
2013-01-28 17:32:00,50.0,45.0,30.42,NNW,332,2.0,9.0,83,0.00,,,-99.99,,2013-01-28 22:32:00,
2013-01-28 17:42:00,50.0,45.0,30.42,NNW,332,2.0,9.0,83,0.00,,,-99.99,,2013-01-28 22:42:00,
2013-01-28 17:52:00,49.0,44.0,30.42,NW,314,3.0,9.0,84,0.00,,,-99.99,,2013-01-28 22:52:00,
2013-01-28 18:02:00,48.0,44.0,30.43,WNW,300,2.0,9.0,86,0.00,,,-99.99,,2013-01-28 23:02:00,
2013-01-28 18:12:00,48.0,44.0,30.43,WNW,300,2.0,9.0,86,0.00,,,-99.99,,2013-01-28 23:12:00,
2013-01-28 18:22:00,48.0,44.0,30.43,NW,316,3.0,6.0,86,0.00,,,-99.99,,2013-01-28 23:22:00,
2013-01-28 18:32:00,47.0,43.0,30.43,NW,308,5.0,6.0,87,0.00,,,-99.99,,2013-01-28 23:32:00,
2013-01-28 18:42:00,47.0,43.0,30.43,NW,308,5.0,6.0,87,0.00,,,-99.99,,2013-01-28 23:42:00,
2013-01-28 18:53:00,47.0,44.0,30.43,WNW,287,3.0,7.0,88,0.00,,,-99.99,,2013-01-28 23:53:00,
2013-01-28 19:02:00,47.0,44.0,30.44,WNW,301,2.0,7.0,88,0.00,,,-99.99,,2013-01-29 00:02:00,
2013-01-28 19:12:00,47.0,44.0,30.44,WNW,301,2.0,7.0,88,0.00,,,-99.99,,2013-01-29 00:12:00,
2013-01-28 19:22:00,46.0,43.0,30.44,NW,321,4.0,7.0,88,0.00,,,-99.99,,2013-01-29 00:22:00,
2013-01-28 19:32:00,46.0,43.0,30.44,NW,304,2.0,10.0,90,0.00,,,-99.99,,2013-01-29 00:32:00,
2013-01-28 19:42:00,46.0,43.0,30.44,NW,304,2.0,10.0,90,0.00,,,-99.99,,2013-01-29 00:42:00,
2013-01-28 19:52:00,46.0,43.0,30.44,NW,311,2.0,7.0,89,0.00,,,-99.99,,2013-01-29 00:52:00,
2013-01-28 20:02:00,46.0,43.0,30.44,WNW,285,3.0,9.0,90,0.00,,,-99.99,,2013-01-29 01:02:00,
2013-01-28 20:12:00,46.0,43.0,30.44,WNW,285,3.0,9.0,90,0.00,,,-99.99,,2013-01-29 01:12:00,
2013-01-28 20:23:00,46.0,43.0,30.44,WNW,300,4.0,12.0,90,0.00,,,-99.99,,2013-01-29 01:23:00,
2013-01-28 20:32:00,45.0,43.0,30.44,NNW,343,4.0,6.0,91,0.00,,,-99.99,,2013-01-29 01:32:00,
2013-01-28 20:42:00,45.0,43.0,30.44,NNW,343,4.0,6.0,91,0.00,,,-99.99,,2013-01-29 01:42:00,
2013-01-28 20:53:00,45.0,43.0,30.44,NNW,328,4.0,7.0,92,0.00,,,-99.99,,2013-01-29 01:53:00,
2013-01-28 21:02:00,45.0,43.0,30.45,NW,321,7.0,9.0,93,0.00,,,-99.99,,2013-01-29 02:02:00,
2013-01-28 21:12:00,45.0,43.0,30.45,NW,321,7.0,9.0,93,0.00,,,-99.99,,2013-01-29 02:12:00,
2013-01-28 21:22:00,45.0,43.0,30.45,NW,315,4.0,8.0,93,0.00,,,-99.99,,2013-01-29 02:22:00,
2013-01-28 21:33:00,44.0,42.0,30.45,NW,321,6.0,10.0,94,0.00,,,-99.99,,2013-01-29 02:33:00,
2013-01-28 21:42:00,44.0,42.0,30.45,NW,321,6.0,10.0,94,0.00,,,-99.99,,2013-01-29 02:42:00,
2013-01-28 21:53:00,44.0,43.0,30.45,WNW,283,3.0,7.0,95,0.00,,,-99.99,,2013-01-29 02:53:00,
2013-01-28 22:03:00,44.0,43.0,30.44,NW,319,3.0,9.0,95,0.00,,,-99.99,,2013-01-29 03:03:00,
2013-01-28 22:12:00,44.0,43.0,30.44,NW,319,3.0,9.0,95,0.00,,,-99.99,,2013-01-29 03:12:00,
2013-01-28 22:22:00,44.0,43.0,30.45,WNW,301,3.0,9.0,96,0.00,,,-99.99,,2013-01-29 03:22:00,
2013-01-28 22:32:00,43.0,42.0,30.44,WNW,300,5.0,10.0,96,0.00,,,-99.99,,2013-01-29 03:32:00,
2013-01-28 22:42:00,43.0,42.0,30.44,WNW,300,5.0,10.0,96,0.00,,,-99.99,,2013-01-29 03:42:00,
2013-01-28 22:53:00,43.0,42.0,30.44,NW,322,5.0,6.0,96,0.00,,,-99.99,,2013-01-29 03:53:00,
2013-01-28 23:02:00,43.0,42.0,30.44,NW,321,5.0,9.0,96,0.00,,,-99.99,,2013-01-29 04:02:00,
2013-01-28 23:12:00,43.0,42.0,30.44,NW,321,5.0,9.0,96,0.00,,,-99.99,,2013-01-29 04:12:00,
2013-01-28 23:22:00,44.0,42.0,30.43,North,350,6.0,9.0,93,0.00,,,-99.99,,2013-01-29 04:22:00,
2013-01-28 23:32:00,44.0,42.0,30.43,NW,322,5.0,11.0,93,0.00,,,-99.99,,2013-01-29 04:32:00,
2013-01-28 23:42:00,44.0,42.0,30.43,NW,322,5.0,11.0,93,0.00,,,-99.99,,2013-01-29 04:42:00,
2013-01-28 23:52:00,45.0,43.0,30.44,NW,318,5.0,10.0,92,0.00,,,-99.99,,2013-01-29 04:52:00,